EW8100 Weather Reports


time (UTC)temp
C
wind
direction
speed
KPH
gust
KPH
rain 1hr
cm
rain 24hr
cm
rain mn
cm
humidity
%
barometer
mb
20260505081517 17 177 16.1 17.7 0.00 0.00 0.00 72 1006.3
20260505080516 17 169 14.5 17.7 0.00 0.00 0.00 71 1006.2
20260505075516 17 168 16.1 19.3 0.00 0.00 0.00 71 1006.3
20260505074516 17 173 16.1 17.7 0.00 0.00 0.00 70 1006.4
20260505073556 18 178 16.1 17.7 0.00 0.00 0.00 69 1006.6
20260505072542 18 179 12.9 16.1 0.00 0.00 0.00 68 1006.8
20260505071516 18 176 14.5 16.1 0.00 0.00 0.00 67 1006.9
20260505070516 18 169 12.9 14.5 0.00 0.00 0.00 65 1007.2
20260505065517 19 177 12.9 16.1 0.00 0.00 0.00 63 1007.4
20260505064516 20 189 17.7 33.8 0.00 0.00 0.00 61 1007.3
20260505063516 20 171 12.9 17.7 0.00 0.00 0.00 58 1007.3
20260505062516 21 166 12.9 20.9 0.00 0.00 0.00 62 1006.8
20260505061516 21 187 14.5 22.5 0.00 0.00 0.00 60 1005.2
20260505060516 21 191 14.5 22.5 0.00 0.00 0.00 60 1005.2
20260505055517 21 191 14.5 20.9 0.00 0.00 0.00 60 1004.9
20260505054516 21 190 14.5 27.4 0.00 0.00 0.00 59 1004.8
20260505053516 22 190 16.1 25.7 0.00 0.00 0.00 59 1004.9
20260505052516 22 187 14.5 20.9 0.00 0.00 0.00 58 1004.6
20260505051517 22 187 16.1 25.7 0.00 0.00 0.00 58 1004.4
20260505050517 22 194 16.1 22.5 0.00 0.00 0.00 58 1004.3
20260505041536 22 187 16.1 24.1 0.00 0.00 0.00 57 1003.8
20260505040516 22 189 16.1 25.7 0.00 0.00 0.00 56 1004.0
20260505035536 22 187 14.5 22.5 0.00 0.00 0.00 56 1004.2
20260505034516 23 186 14.5 19.3 0.00 0.00 0.00 56 1004.4
20260505033556 23 187 16.1 20.9 0.00 0.00 0.00 56 1004.5
20260505032517 23 186 14.5 20.9 0.00 0.00 0.00 55 1004.4
20260505031516 23 180 14.5 19.3 0.00 0.00 0.00 55 1004.4
20260505030517 23 183 14.5 17.7 0.00 0.00 0.00 54 1004.4
20260505025516 23 184 14.5 19.3 0.00 0.00 0.00 53 1004.3
20260505024517 23 187 14.5 20.9 0.00 0.00 0.00 53 1004.2
20260505023517 23 185 14.5 20.9 0.00 0.00 0.00 53 1004.1
20260505022516 23 187 14.5 20.9 0.00 0.00 0.00 53 1003.8
20260505021516 24 185 14.5 20.9 0.00 0.00 0.00 53 1003.6
20260505020542 24 187 14.5 19.3 0.00 0.00 0.00 53 1003.3
20260505015556 24 183 14.5 22.5 0.00 0.00 0.00 53 1003.2
20260505014516 24 186 14.5 20.9 0.00 0.00 0.00 53 1003.2
20260505013517 24 182 14.5 20.9 0.00 0.00 0.00 53 1003.0
20260505012557 24 181 14.5 20.9 0.00 0.00 0.00 54 1002.9
20260505011516 24 184 14.5 17.7 0.00 0.00 0.00 54 1002.9
20260505010516 24 182 14.5 17.7 0.00 0.00 0.00 53 1002.9
20260505005516 25 182 14.5 17.7 0.00 0.00 0.00 53 1002.9
20260505004517 25 182 14.5 16.1 0.00 0.00 0.00 52 1002.7
20260505003517 25 183 14.5 19.3 0.00 0.00 0.00 51 1002.5
20260505002517 25 184 14.5 19.3 0.00 0.00 0.00 51 1002.6
20260505001516 25 185 14.5 19.3 0.00 0.00 0.00 51 1002.5
20260505000516 26 188 16.1 22.5 0.00 0.00 0.00 50 1002.5
20260504235516 26 187 14.5 22.5 0.00 0.00 0.00 50 1002.4
20260504234516 26 186 14.5 17.7 0.00 0.00 0.00 49 1002.4
20260504233537 26 189 16.1 19.3 0.00 0.00 0.00 49 1002.4
20260504232517 26 186 16.1 24.1 0.00 0.00 0.00 49 1002.6
20260504231541 26 190 14.5 22.5 0.00 0.00 0.00 49 1002.8
20260504230517 26 190 17.7 22.5 0.00 0.00 0.00 49 1002.7
20260504225537 26 189 16.1 24.1 0.00 0.00 0.00 50 1002.9
20260504224532 26 189 16.1 19.3 0.00 0.00 0.00 49 1002.8
20260504223516 26 184 16.1 19.3 0.00 0.00 0.00 49 1002.9
20260504222517 26 189 16.1 25.7 0.00 0.00 0.00 48 1003.0
20260504221517 26 185 16.1 22.5 0.00 0.00 0.00 50 1003.0
20260504220516 26 185 16.1 24.1 0.00 0.00 0.00 50 1003.0
20260504215537 26 188 16.1 24.1 0.00 0.00 0.00 50 1003.0
20260504214516 26 191 16.1 22.5 0.00 0.00 0.00 52 1003.1
20260504213517 26 181 17.7 22.5 0.00 0.00 0.00 53 1003.2
20260504212537 26 187 16.1 22.5 0.00 0.00 0.00 59 1003.2
20260504211516 25 183 17.7 22.5 0.00 0.00 0.00 59 1003.4
20260504210536 25 189 16.1 20.9 0.00 0.00 0.00 60 1003.5
20260504205537 25 182 16.1 22.5 0.00 0.00 0.00 60 1003.4
20260504204516 25 183 16.1 22.5 0.00 0.00 0.00 60 1003.6
20260504203537 24 185 17.7 24.1 0.00 0.00 0.00 59 1003.8
20260504202516 24 190 16.1 24.1 0.00 0.00 0.00 59 1003.9
20260504201517 23 166 19.3 29.0 0.00 0.00 0.00 59 1004.1
20260504200016 22 183 16.1 22.5 0.00 0.00 0.00 65 1004.2
20260504195036 22 185 14.5 22.5 0.00 0.00 0.00 64 1004.4
20260504194016 21 180 16.1 22.5 0.00 0.00 0.00 66 1004.5
20260504193016 21 180 16.1 22.5 0.00 0.00 0.00 69 1004.7
20260504192021 20 181 14.5 19.3 0.00 0.00 0.00 70 1005.0
20260504191017 20 177 17.7 25.7 0.00 0.00 0.00 72 1004.5
20260504190037 18 168 19.3 27.4 0.00 0.00 0.00 71 1004.3
20260504185016 18 164 19.3 29.0 0.00 0.00 0.00 71 1004.5
20260504184036 18 171 17.7 24.1 0.00 0.00 0.00 70 1005.8
20260504183017 19 175 16.1 24.1 0.00 0.00 0.00 69 1005.8
20260504182016 19 174 16.1 20.9 0.00 0.00 0.00 70 1005.9
20260504181016 18 179 17.7 24.1 0.00 0.00 0.00 69 1005.6
20260504180016 18 172 17.7 24.1 0.00 0.00 0.00 69 1005.6
20260504175017 18 175 16.1 24.1 0.00 0.00 0.00 69 1005.7
20260504174037 18 174 16.1 20.9 0.00 0.00 0.00 70 1005.8
20260504173016 18 182 14.5 20.9 0.00 0.00 0.00 69 1006.2
20260504171017 18 184 16.1 20.9 0.00 0.00 0.00 69 1006.3
20260504151016 18 180 14.5 22.5 0.00 0.00 0.00 62 1007.7
20260504141016 19 180 16.1 24.1 0.00 0.00 0.00 61 1008.0
20260504110139 16 174 14.5 16.1 0.00 0.00 0.00 72 1008.6